Location: Amsterdam
(30.7274°N, 84.4357°W)
Time: 07:09:16
(UTC+00:00)

Courier 1B Rocket - Pass Details

Date: 14 February 2026
Orbit: 920 x 1201 km, 28.2° (Epoch: 9 March)

Event Time Altitude Azimuth Distance (km) Brightness Sun altitude
Rises 04:09:30 0° 264° (W) 3,660 - -60.5°
Reaches altitude 10° 04:12:05 10° 263° (W) 2,747 - -61.0°
Maximum altitude 04:18:45 74° 180° (S) 1,084 - -62.2°
Drops below altitude 10° 04:25:58 10° 96° (E) 2,957 - -63.4°
Sets 04:28:51 0° 94° (E) 3,957 - -63.9°
